Location: Brodie Road Observatory
(45.4241°N, 74.5431°W)
Time: 12:11:48
(UTC-04:00)

Daily predictions for brighter satellites

Satellite Brightness Start Highest point End
(mag) Time Altitude Azimuth Time Altitude Azimuth Time Altitude Azimuth
Cosmos 1809 Rocket 4.5 20:10:49 10° S 20:16:57 76° E 20:23:06 10° NNE
BREEZE-M DEB (TANK) 3.7 20:14:59 10° WNW 20:17:41 49° NNE 20:24:32 10° E
Resurs 1-3 4.2 20:14:58 10° S 20:19:18 61° WSW 20:23:41 10° NNW
Cosmos 1025 Rocket 3.3 20:15:50 10° NNW 20:20:13 73° W 20:24:32 10° S
Cosmos 2219 4.1 20:15:24 10° NW 20:20:50 51° WSW 20:26:14 10° S
Cosmos 2239 Rocket 4.5 20:16:55 10° S 20:23:08 75° E 20:29:19 10° NNE
Cosmos 1455 Rocket 3.4 20:19:06 10° SSE 20:23:10 42° E 20:27:18 10° NNE
Cosmos 1975 4.2 20:22:26 10° SE 20:25:35 22° E 20:28:45 10° NE
Cosmos 1656 Rocket 4.2 20:21:29 10° SW 20:27:02 64° WNW 20:32:32 10° NNE
Cosmos 1570 Rocket 4.2 20:24:17 10° S 20:29:22 49° ESE 20:34:27 10° NNE
Meteor 2-4 Rocket 4.2 20:27:03 10° NNW 20:32:50 72° W 20:38:43 10° S
Cosmos 1461 3.0 20:29:20 10° NNW 20:33:24 57° NE 20:37:13 11° SE
Resurs 01 Rocket 3.5 20:30:00 10° SSW 20:34:00 33° W 20:38:04 10° NNW
Lacrosse 5 rocket 1.6 20:30:45 10° NW 20:34:25 47° NE 20:37:38 12° ESE
Cosmos 1934 Rocket 4.0 20:28:38 10° S 20:34:42 72° E 20:40:55 10° NNE
Envisat 3.8 20:31:30 10° SE 20:36:01 34° ENE 20:40:35 10° N
Cosmos 1315 Rocket 3.9 20:33:19 10° SSW 20:37:12 49° WNW 20:41:11 10° N
Cosmos 2278 3.9 20:35:29 10° S 20:40:55 49° ESE 20:46:23 10° NE
Cosmos 1697 Rocket 4.0 20:37:47 10° SE 20:41:37 19° E 20:45:26 10° ENE
Tiangong 1 1.5 20:39:35 10° WSW 20:42:32 42° S 20:44:50 15° ESE
DELTA 2 R/B (1) 4.0 20:39:10 10° WSW 20:44:29 47° S 20:49:03 14° ESE
CZ-4 DEB 3.0 20:42:05 10° SSE 20:45:07 47° ENE 20:48:11 10° N
USA 186 2.3 20:46:14 10° S 20:49:20 57° W 20:52:15 10° NNW
OTV 4 2.3 20:48:52 10° SW 20:51:03 19° S 20:52:22 15° SSE
H-2A R/B 3.5 20:47:20 10° S 20:51:07 54° W 20:55:00 10° NNW
Cosmos 2369 3.8 20:48:16 10° S 20:53:46 55° ESE 20:59:20 10° NNE
Cosmos 2084 4.3 20:50:18 10° NNW 20:54:01 35° NE 20:56:46 16° ESE
Iridium 4 Rocket 3.6 20:49:15 10° N 20:54:28 55° E 20:59:10 10° SSE
EP 2 4.4 20:52:57 10° SW 20:55:33 80° NW 20:58:29 10° NE
ATLAS CENTAUR R/B 3.8 20:51:07 10° WSW 20:55:38 33° NW 21:00:03 10° NNE
Cosmos 220 Rocket 4.2 20:51:37 10° NNW 20:55:47 51° ENE 20:58:52 17° SE
Cosmos 1939 Rocket 3.2 20:52:33 13° SE 20:56:08 50° ENE 21:00:11 10° N
Cosmos 1544 Rocket 4.1 20:52:27 10° SSW 20:56:47 62° W 21:01:11 10° N
SJ-11-01 4.2 20:58:06 10° SSE 21:02:48 81° ENE 21:07:31 10° NNW
Cosmos 1980 Rocket 3.5 21:02:28 17° ESE 21:03:16 17° E 21:06:53 10° ENE
NOSS 2-1 (D) 4.3 21:06:51 10° SW 21:10:43 53° NW 21:15:17 10° NNE
ARGOS 4.3 21:08:00 18° ESE 21:10:44 27° ENE 21:15:11 10° N
Cosmos 1898 Rocket 3.7 21:05:57 10° NNW 21:11:11 55° ENE 21:14:34 21° SE
NOSS 2-1 (C) 4.3 21:07:52 10° SW 21:11:44 53° NW 21:16:19 10° NNE
ERS-1 Rocket 3.0 21:07:39 10° SSE 21:12:41 89° W 21:17:44 10° NNW
Cosmos 2173 Rocket 4.4 21:09:21 11° SSE 21:14:58 43° E 21:20:53 10° NNE
Cosmos 1346 Rocket 4.2 21:12:39 10° NNW 21:16:19 37° W 21:19:59 10° SSW
Cosmos 1605 Rocket 4.2 21:11:22 10° SSW 21:17:43 78° W 21:24:01 10° N
Cosmos 2061 Rocket 4.3 21:15:45 12° SSE 21:21:14 47° E 21:27:11 10° NNE
RESURS DK-1 3.2 21:18:00 10° NNW 21:21:52 36° NE 21:23:22 27° E
Cosmos 2100 Rocket 4.1 21:17:30 10° SSE 21:23:35 53° E 21:29:38 10° NNE
Cosmos 2227 Rocket 2.9 21:21:50 10° NW 21:27:20 52° WSW 21:32:24 12° S
Cosmos 2263 Rocket 4.3 21:27:12 10° N 21:30:05 14° NE 21:32:57 10° ENE
MetOp-B 4.2 21:28:49 26° SE 21:31:49 60° ENE 21:37:06 10° N
Cosmos 468 Rocket 4.0 21:29:57 10° S 21:34:55 54° ESE 21:39:55 10° NNE
Cosmos 1825 Rocket 3.7 21:32:26 10° N 21:36:50 55° ENE 21:38:15 37° SE
Cosmos 1500 3.0 21:34:20 20° S 21:36:53 88° E 21:40:40 10° N
BREEZE-M DEB (TANK) 3.9 21:27:11 10° SW 21:40:26 54° SSE 21:42:56 28° E
Cosmos 1814 Rocket 4.1 21:37:53 17° S 21:41:55 53° ESE 21:47:05 10° NNE
Cosmos 1656 3.5 21:36:41 10° SSW 21:42:18 76° ESE 21:47:52 10° NNE
Cosmos 972 Rocket 4.3 21:37:20 10° NNW 21:43:06 80° ENE 21:46:40 28° SSE
Cosmos 2297 Rocket 2.8 21:37:42 10° NW 21:43:12 54° WSW 21:47:09 19° S
Cosmos 841 Rocket 4.4 21:44:37 28° E 21:44:37 28° E 21:48:38 10° NE
Cosmos 1953 Rocket 3.8 21:40:44 10° N 21:45:04 49° ENE 21:45:59 42° ESE
USA 215 3.5 21:42:02 25° ESE 21:45:57 64° NNE 21:52:25 10° NW
Lacrosse 5 1.9 21:44:46 10° NW 21:49:52 76° NE 21:51:36 41° ESE
Cosmos 1340 2.6 21:47:25 10° N 21:51:12 61° ENE 21:51:29 59° ESE
H-2A R/B 2.3 21:49:23 29° S 21:51:18 62° WSW 21:55:24 10° NNW
deb Chang Zheng 4 3.7 21:49:07 10° NNE 21:53:37 80° WNW 21:57:05 17° SSW
SPOT 5 3.0 21:52:32 29° S 21:55:13 75° WSW 22:00:07 10° NNW
Cosmos 1725 Rocket 4.3 21:57:36 37° SE 21:59:15 45° E 22:05:08 10° NNE
Cosmos 1459 Rocket 3.9 21:59:01 14° S 22:04:19 82° W 22:10:27 10° N
Cosmos 1758 Rocket 3.4 22:00:01 10° N 22:04:24 67° E 22:04:48 63° ESE
Cosmos 1743 2.8 22:06:26 53° SSW 22:07:16 75° W 22:11:13 10° N
BREEZE-M DEB (TANK) 4.4 21:45:36 10° WNW 22:09:30 79° NNE 22:12:42 33° E
H-2A R/B 2.4 22:10:13 42° E 22:10:44 43° ENE 22:15:24 10° N
YAOGAN 6 3.1 22:12:12 49° SW 22:12:36 52° W 22:16:15 10° NNW
Lacrosse 5 rocket 2.8 22:10:26 10° WNW 22:13:22 23° SW 22:13:22 23° SW
Cosmos 2228 4.1 22:16:12 32° NE 22:16:12 32° NE 22:18:59 10° NNE
Envisat 4.4 22:11:14 14° SSW 22:15:01 33° W 22:19:36 10° NNW
GEOS 3 Rocket 3.6 22:10:19 10° NE 22:15:08 53° ESE 22:15:08 53° ESE
Cosmos 2098 Rocket 4.0 22:14:26 36° SSE 22:17:29 70° E 22:23:29 10° NNE
Tiangong 1 3.4 22:15:49 10° W 22:16:48 18° WSW 22:16:48 18° WSW
Cosmos 1937 Rocket 3.9 22:14:11 10° NNW 22:19:20 56° WSW 22:21:02 39° SSW
Cosmos 1842 3.4 22:19:16 10° N 22:22:45 68° N 22:22:45 68° N
Landsat 7 3.8 22:24:24 65° E 22:24:33 65° ENE 22:29:18 10° N
Cosmos 1697 Rocket 2.9 22:19:20 10° SW 22:24:58 69° WNW 22:30:38 10° NNE
Cosmos 2058 Rocket 3.0 22:25:44 76° ENE 22:25:44 76° ENE 22:30:05 10° NNE
Cosmos 1802 Rocket 4.3 22:20:59 17° SSW 22:25:57 68° W 22:32:23 10° N
CZ-4 R/B 3.9 22:22:20 10° NNE 22:26:35 60° ENE 22:26:35 60° ENE
SL-16 R/B 3.6 22:29:58 24° ENE 22:29:58 24° ENE 22:32:42 10° NE
Cosmos 2233 Rocket 4.2 22:27:57 47° E 22:28:16 47° E 22:34:12 10° NNE
SPOT 1/Viking Rocket 3.8 22:28:06 46° SSW 22:29:28 64° WSW 22:34:41 10° NNW
ASTEX 1 4.0 22:26:01 10° N 22:30:55 55° W 22:33:04 31° SW
NOAA 11 4.3 22:29:43 47° SSW 22:31:14 68° WSW 22:36:43 10° NNW
SL-08 R/B 4.5 22:30:44 36° SSW 22:33:28 82° W 22:39:42 10° N
Meteor 2-5 Rocket 4.4 22:28:37 10° N 22:34:13 41° ENE 22:34:30 40° E
SL-08 RB Rocket 3.8 22:35:12 66° SW 22:35:32 69° WSW 22:40:12 10° NNW
Meteor 1-15 Rocket 4.2 22:35:41 62° SSE 22:36:37 76° E 22:42:30 10° NNE
Cosmos 990 Rocket 4.5 22:31:42 10° NNW 22:36:49 53° WSW 22:37:48 46° SW
Cosmos 1606 Rocket 4.3 22:38:14 41° WSW 22:39:11 49° WNW 22:43:30 10° N
Terra 1.9 22:40:15 63° NE 22:40:15 63° NE 22:44:40 10° N
CZ-4B R/B 3.4 22:38:50 10° N 22:43:35 73° WNW 22:44:01 68° WSW
Cosmos 1980 Rocket 2.3 22:44:07 35° SW 22:46:35 75° WNW 22:52:19 10° NNE
Cosmos 2360 Rocket 4.4 22:50:52 11° ENE 22:50:52 11° ENE 22:51:16 10° ENE
CARTOSAT-1 4.0 22:50:34 57° N 22:50:34 57° N 22:54:04 10° NNW
ARGOS 3.8 22:49:32 40° SW 22:50:42 47° W 22:55:55 10° NNW
Spot 4 4.2 22:54:42 58° NNE 22:54:42 58° NNE 22:58:47 10° N
Cosmos 1125 Rocket 3.5 22:54:18 10° NNW 22:59:15 77° WNW 22:59:15 77° WNW
RESURS DK-1 4.3 22:56:28 10° NW 22:59:18 22° W 22:59:18 22° W
Cosmos 1666 4.4 23:02:40 32° NW 23:02:40 32° NW 23:05:23 10° N
Meteor 1-24 Rocket 4.5 23:00:08 10° N 23:05:38 43° ENE 23:05:38 43° ENE
Cosmos 1763 Rocket 4.1 23:04:53 42° WSW 23:06:02 51° WNW 23:11:00 10° NNE
CZ-4C R/B 4.4 23:07:43 48° WNW 23:07:43 48° WNW 23:11:20 10° NNW
DMSP B5D2-2 4.2 23:09:13 10° NNE 23:13:59 72° N 23:13:59 72° N
Cosmos 2263 Rocket 2.4 23:09:36 10° NNW 23:14:41 62° NNE 23:14:41 62° NNE
Cosmos 2322 Rocket 2.6 23:18:34 55° NE 23:18:34 55° NE 23:22:55 10° NNE
USA 215 3.7 23:29:23 45° SW 23:29:23 45° SW 23:35:22 10° WNW
Lacrosse 5 3.9 23:28:31 10° WNW 23:30:48 19° W 23:30:48 19° W
GP-B 4.4 23:28:51 10° N 23:31:51 38° NNW 23:31:51 38° NNW
H-2A R/B 3.7 23:50:51 24° W 23:50:51 24° W 23:54:22 10° NW
Cosmos 540 Rocket 4.4 23:54:21 45° NNW 23:54:21 45° NNW 23:58:16 10° NNE
